Johnstone Strait: Past 24 Hour Conditions

 

Estevan Point

04:00 AM PDT 20 October 2014
This table is a summary of hourly weather conditions for the past 24 hours.
Date / Time
(PDT)
Wind(knots) Conditions Visibility(km) Pressure(kPa) Air tempC) Relative humidity(%) Dew pointC)
20 October 2014
4:00 ESE 6 N/A N/A 100.2 12 97 12
3:00 SE 16 gust 21 N/A N/A 100.2 13 97 12
2:00 ESE 13 gust 19 N/A N/A 100.1 13 97 12
1:00 ESE 25 N/A N/A 100.2 13 97 13
0:00 E 13 gust 21 N/A N/A 100.2 13 97 13
19 October 2014
23:00 E 13 gust 23 N/A N/A 100.2 13 97 13
22:00 E 12 gust 22 N/A N/A 100.2 13 97 13
21:00 E 14 gust 23 N/A N/A 100.2 13 97 12
20:00 E 18 gust 26 N/A N/A 100.1 13 97 13
19:00 ESE 14 gust 27 N/A N/A 100.1 13 97 12
18:00 ESE 16 gust 27 N/A N/A 100.1 13 96 12
17:00 E 17 gust 31 N/A N/A 100.1 13 97 13
16:00 E 15 gust 23 N/A N/A 100.1 13 97 13
15:00 ESE 17 gust 25 N/A N/A 100.0 14 98 13
14:00 SE 22 N/A N/A 100.0 14 98 13
13:00 ESE 25 gust 30 N/A N/A 99.9 14 97 14
12:00 ESE 26 gust 38 N/A N/A 99.9 14 97 14
11:00 ESE 23 gust 37 N/A N/A 99.8 14 97 14
10:00 ESE 29 gust 44 N/A N/A 99.8 14 97 14
9:00 E 25 gust 39 N/A N/A 99.8 14 95 14
8:00 E 22 gust 47 N/A N/A 99.9 14 96 14
7:00 ESE 25 gust 42 N/A N/A 99.9 14 97 14
6:00 E 26 gust 44 N/A N/A 99.9 14 97 14
5:00 E 24 gust 35 N/A N/A 100.1 14 97 14
4:00 E 23 gust 37 N/A N/A 100.2 14 96 14
 
Map of Pacific - South Coast marine weather areas Tsawwassen Ferry Terminal South Nomad - 46036 Sentry Shoal - 46131 South Brooks - 46132 Halibut Bank - 46146 South Moresby - 46147 South Hecate Strait - 46185 West Sea Otter - 46204 La Perouse Bank - 46206 East Dellwood - 46207 Discovery Island Esquimalt Harbour Kelp Reefs Malahat Race Rocks Lightstation Saturna Island Sheringham Point University of Victoria Victoria Gonzales Victoria Int'l Airport Ballenas Islands Campbell River Airport Comox Airport Entrance Island Fanny Island Nanaimo Airport Port Hardy Airport Sisters Islets Estevan Point Sartine Island Solander Island Tofino Airport Grief Point Powell River Airport Sechelt Cape St.James Bella Bella Airport Bella Coola Airport Cathedral Point Herbert Island Point Atkinson Sand Heads Lightstation Vancouver Harbour Vancouver Int'l Airport West Vancouver Port Alberni Howe Sound - Pam Rocks Squamish Airport